Location: Unspecified
(0.0000°N, 0.0000°E)
Time: 18:52:08
(UTC+00:00)

CORVUS BC2 - Visible Passes

Search period start: 12 October 2024 00:00
Search period end: 22 October 2024 00:00
Orbit: 562 x 574 km, 97.4° (Epoch: 12 October)

Date Brightness Start Highest point End Pass type
(mag) Time Alt. Az. Time Alt. Az. Time Alt. Az.
15 Oct ? 18:01:14 10° NNW 18:04:47 29° W 18:08:20 10° SW visible
16 Oct ? 18:02:34 10° NNW 18:06:04 28° W 18:09:34 10° SW visible
17 Oct ? 18:03:54 10° NNW 18:07:20 27° W 18:10:48 10° SW visible
18 Oct ? 04:32:34 10° E 04:33:11 10° ENE 04:33:47 10° ENE visible
18 Oct ? 18:05:13 10° NNW 18:08:35 25° W 18:11:58 10° SW visible
19 Oct ? 04:33:22 10° E 04:34:25 11° ENE 04:35:28 10° ENE visible
19 Oct ? 18:06:29 10° NNW 18:09:48 24° W 18:13:08 10° SW visible
20 Oct ? 04:34:18 10° E 04:35:38 11° ENE 04:36:58 10° ENE visible
20 Oct ? 18:07:46 10° NNW 18:11:01 23° W 18:14:17 10° SW visible
21 Oct ? 04:35:15 10° ESE 04:36:50 12° ENE 04:38:23 10° NE visible
21 Oct ? 18:09:01 10° NNW 18:12:11 22° W 18:15:23 10° SW visible
